#timestamp,LO_Frequency,Hit,StdDev 
1557806415.1,286047005.9,Y
1557806435.9,286047001.3,P
1557806455.7,286047003.4,P
1557806475.5,286047004.0,P
1557806495.4,286047001.8,N
1557806515.2,286047002.8,N
1557806535.1,286047002.4,N
1557806536.0,286047002.4,N
1557806555.8,286047002.3,N
1557806575.6,286047002.7,N
1557806595.5,286047001.6,N
1557806615.3,286047004.4,Y
1557806635.1,286047000.2,P
1557806655.9,286047001.2,N
1557806675.7,286046998.5,N
1557806695.6,286046998.6,N
1557806715.4,286046998.5,N
1557806735.2,286046998.1,N
1557806755.1,286046999.3,N
1557806756.0,286046999.3,N
1557806775.8,286046999.1,N
1557806795.6,286047001.0,N
1557806815.5,286046996.9,N
1557806835.3,286046995.2,Y
1557806855.2,286046995.3,P
1557806875.9,286046993.8,P
1557806895.7,286046992.3,P
1557806915.6,286046991.7,Y
1557806935.4,286046997.2,P
1557806955.2,286046998.7,N
1557806975.1,286046999.1,N
1557806976.0,286046999.1,N
1557806995.8,286046997.7,N
1557807015.7,286046996.2,N
1557807035.5,286046996.4,N
1557807055.3,286046995.9,Y
1557807075.2,286046994.9,P
1557807095.0,286046996.4,N
1557807095.9,286046996.4,P
1557807115.8,286046995.6,Y
1557807135.6,286046998.1,P
1557807155.4,286047000.2,N
1557807175.3,286047001.5,N
1557807195.1,286047000.4,N
1557807215.8,286046999.0,N
1557807235.7,286046998.3,N
1557807255.5,286047002.7,N
1557807275.4,286047001.3,N
1557807295.2,286047002.8,N
1557807315.0,286047001.8,N
1557807315.9,286047001.8,N
1557807335.8,286047004.1,N
1557807355.6,286047004.4,N
1557807375.4,286047005.7,N
1557807395.3,286047003.2,N
1557807415.2,286047001.5,N
1557807435.0,286047004.3,N
1557807435.9,286047004.3,N
1557807455.8,286047001.6,N
1557807475.6,286047002.6,N
1557807495.4,286047002.0,N
1557807515.3,286046999.8,N
1557807535.1,286047001.6,N
1557807555.8,286047001.6,N
1557807575.7,286047004.4,N
1557807595.5,286047001.3,N
1557807615.4,286047003.9,N
1557807635.2,286047004.0,N
1557807655.0,286047004.4,N
1557807655.9,286047004.4,N
1557807675.7,286047003.4,N
1557807695.6,286047004.9,N
1557807715.4,286047007.4,Y
1557807735.2,286047005.4,P
1557807755.1,286047005.3,P
1557807775.8,286047007.0,P
1557807795.6,286047007.4,Y
1557807815.5,286046999.6,P
1557807835.3,286046998.7,N
1557807855.1,286046999.1,N
1557807875.9,286047001.1,N
1557807895.7,286046999.4,N
1557807915.5,286046996.9,N
1557807935.4,286046999.2,N
1557807955.2,286046997.0,N
1557807975.1,286046997.1,N
1557807976.0,286046997.1,N
1557807995.8,286046995.0,N
1557808015.6,286046995.7,N
1557808035.5,286046996.4,N
1557808055.3,286046993.8,N
1557808075.2,286046994.1,N
1557808095.9,286046994.6,N
1557808115.7,286046993.9,N
1557808135.6,286046994.8,N
1557808155.4,286046994.5,N
1557808175.2,286046994.3,N
1557808195.1,286046993.6,N
1557808196.0,286046993.6,N
1557808215.8,286046994.7,N
1557808235.7,286046991.9,N
1557808255.5,286046994.1,N
1557808275.3,286046993.3,N
1557808295.2,286046993.5,N
1557808315.9,286046994.2,N
1557808335.7,286046996.4,N
1557808355.6,286046996.9,N
1557808375.4,286047002.5,N
1557808395.3,286046999.7,N
1557808415.1,286046999.3,N
1557808416.0,286046999.3,N
1557808435.8,286046994.9,N
1557808455.7,286046994.9,N
1557808475.5,286046998.0,N
1557808495.4,286046996.9,N
1557808515.2,286046999.4,N
1557808535.1,286046999.5,N
1557808536.0,286046999.5,N
1557808555.8,286046999.3,N
1557808575.6,286046998.9,N
1557808595.5,286046997.4,N
1557808615.3,286046999.0,N
1557808635.2,286046998.5,N
1557808655.9,286046996.6,N
1557808675.7,286046999.0,N
1557808695.6,286046999.1,N
1557808715.4,286046997.0,N
1557808735.3,286046999.5,N
1557808755.1,286046997.0,N
1557808756.0,286046997.0,N
1557808775.8,286046997.7,N
1557808795.7,286046997.3,N
1557808815.5,286046999.3,N
1557808835.3,286046998.8,N
1557808855.2,286046998.9,N
1557808875.0,286046996.6,N
1557808875.9,286046996.6,N
1557808895.8,286046995.4,N
1557808915.6,286046993.6,Y
1557808935.4,286046999.2,P
1557808955.3,286046999.0,N
1557808975.1,286047000.9,N
1557808995.9,286046999.9,N
1557809015.7,286047000.8,N
1557809035.5,286047001.5,N
1557809055.4,286046998.1,N
1557809075.2,286047001.0,N
1557809095.0,286047000.0,N
1557809095.9,286047000.0,N
1557809115.8,286047002.1,N
1557809135.6,286047001.6,N
1557809155.5,286047001.5,N
1557809175.3,286047002.2,N
1557809195.1,286047001.8,N
1557809215.9,286047004.3,Y
1557809235.7,286046998.2,P
1557809255.6,286046999.4,N
1557809275.4,286047000.0,N
1557809295.2,286047002.1,N
1557809315.1,286047000.0,N
1557809316.0,286047000.0,N
1557809335.8,286047002.5,N
1557809355.7,286047002.6,N
1557809375.5,286047004.1,N
1557809395.3,286047001.7,N
1557809415.2,286046999.8,N
1557809435.9,286047002.3,N
1557809455.7,286047000.3,N
1557809475.6,286047002.8,N
1557809495.4,286047002.0,N
1557809515.3,286047002.7,N
1557809535.1,286047001.2,N
1557809536.0,286047001.2,N
1557809555.8,286047000.9,N
1557809575.7,286047002.8,N
1557809595.5,286047003.1,N
1557809615.3,286047003.7,N
1557809635.2,286047003.9,N
1557809655.0,286047001.9,N
1557809655.9,286047001.9,N
1557809675.8,286046999.7,N
1557809695.6,286046999.7,N
1557809715.4,286047003.1,N
1557809735.3,286047002.8,N
1557809755.1,286047004.2,N
1557809775.8,286047002.2,N
1557809795.7,286047000.0,N
1557809815.5,286047000.6,N
1557809835.4,286047000.1,N
1557809855.2,286046998.2,N
1557809875.0,286047000.9,N
1557809875.9,286047000.9,N
1557809895.8,286047002.2,N
1557809915.8,286047000.5,N
1557809935.7,286047000.1,N
1557809955.5,286047003.5,N
1557809975.3,286047001.5,N
1557809995.2,286047002.4,N
